RH
56 33 36 24 25 31 34 24 24 16 16 13 18 40 42 47 40 46 73 75 89 92 95 91 92 90 90 90 90 91 91 91 90 89 89 89 90 90 92 92 91 86 78 72 68 67 66 66 70
36 27 30 30 28 32 23 22 22 18 16 15 14 36 42 45 54 68 72 84 82 93 93 94 92 90 90 90 91 92 91 91 90 90 90 90 91 92 91 91 87 80 74 68 65 62 60 62 64
18 32 34 40 39 27 23 19 23 20 20 13 18 30 35 41 51 60 70 83 91 94 86 91 92 91 90 90 91 92 92 91 90 89 90 90 92 92 91 89 85 76 70 65 62 60 64 64 63
18 26 39 48 44 31 22 21 28 22 20 14 22 35 29 30 36 58 80 85 89 89 83 90 93 92 91 90 90 91 91 91 90 90 90 90 91 91 90 88 85 78 69 64 63 66 67 64 63
25 34 47 65 50 37 26 24 25 24 21 16 23 34 37 30 68 78 87 81 89 89 84 93 93 92 91 90 90 90 91 91 91 90 90 90 90 90 90 87 83 79 74 68 65 69 70 68 66
25 36 52 53 44 33 29 26 24 22 19 16 23 30 34 43 69 78 79 86 85 85 86 85 91 93 91 91 90 91 91 91 91 91 90 90 91 90 89 88 84 81 77 73 70 72 70 69 66
27 40 46 47 40 32 28 26 24 22 21 17 14 30 23 25 62 71 76 86 93 88 84 81 84 93 91 92 92 92 92 92 92 92 92 92 91 91 91 89 88 85 81 79 77 74 72 70 68
25 33 45 40 37 32 24 23 23 20 18 14 18 29 24 22 65 69 74 88 97 97 91 80 81 92 97 94 93 93 92 92 93 93 93 92 91 91 91 91 89 85 82 80 79 76 74 73 73
27 36 45 36 32 27 23 24 22 18 16 17 15 18 20 27 66 73 79 96 99 92 88 79 80 82 93 97 92 93 89 92 93 93 93 94 96 95 90 90 88 86 82 81 80 78 77 76 75
29 40 34 28 27 26 24 22 21 19 18 19 17 14 20 29 69 77 74 86 94 95 84 79 78 80 90 88 94 97 93 94 96 96 96 97 98 98 91 89 88 87 83 82 81 80 79 77 83
29 34 27 24 22 22 23 22 18 21 19 19 17 16 23 23 62 75 74 74 81 90 88 82 78 80 89 88 96 94 97 97 98 99 98 99 97 96 94 96 93 95 86 87 86 86 87 86 85
28 22 20 20 18 20 19 18 19 20 17 17 16 18 19 22 51 72 80 83 78 92 90 89 81 87 96 92 92 93 94 97 97 94 92 98 99 99 99 96 95 95 93 92 88 88 87 85 84
21 20 16 15 16 16 15 17 17 15 15 15 16 16 22 24 41 62 69 81 91 93 89 90 85 89 94 95 91 92 91 93 89 83 85 96 98 97 97 96 94 93 92 90 89 86 83 82 79
23 20 19 19 18 18 16 16 18 15 15 14 16 17 20 23 26 47 73 84 93 90 89 90 88 87 88 91 87 84 84 84 83 81 84 93 94 96 96 94 92 91 90 88 86 85 84 81 78
24 24 20 20 20 17 18 18 18 15 14 16 14 14 26 28 25 29 50 72 78 89 86 94 91 87 90 90 87 78 79 78 81 83 90 96 95 94 92 91 91 88 90 89 88 86 85 84 79
25 28 31 22 20 16 17 20 17 15 17 19 19 18 20 23 27 24 27 56 66 80 89 88 82 89 93 91 87 83 85 83 84 89 93 94 94 92 91 88 89 88 89 88 88 87 86 87 85
30 33 39 25 22 19 20 23 19 18 17 18 18 18 17 19 21 31 28 28 41 67 82 86 84 86 92 92 91 91 94 92 92 92 92 93 93 90 89 86 83 88 89 91 88 89 89 88 85
31 34 31 30 22 23 22 23 21 20 21 21 22 21 20 18 18 23 29 30 31 52 76 82 84 83 88 88 94 95 96 90 91 87 86 89 90 89 90 85 87 87 87 88 90 90 89 88 85
30 34 33 28 22 26 27 26 24 22 22 20 21 23 23 21 16 24 27 32 36 50 81 86 87 89 86 89 91 94 88 97 97 96 85 85 86 86 89 85 85 86 86 84 89 88 89 88 89
31 35 34 30 25 29 31 30 27 23 21 19 21 25 26 27 25 24 41 56 60 50 66 84 88 93 86 82 81 95 96 97 95 96 93 90 86 84 84 84 82 86 80 88 90 88 88 88 88
32 36 34 33 29 28 29 27 27 24 24 22 22 24 25 27 29 28 35 64 75 76 84 86 92 93 88 91 97 99 99 99 98 97 96 93 89 88 89 87 82 89 85 93 88 87 90 87 91
36 28 28 30 36 43 29 36 28 30 23 21 19 22 23 22 24 27 28 54 73 72 85 92 96 98 96 96 96 96 98 99 98 97 95 96 90 90 91 93 91 94 89 92 94 89 89 89 91
43 37 43 42 46 43 39 42 38 33 28 26 24 22 21 24 25 23 23 30 62 69 76 86 94 98 98 96 92 96 98 98 99 99 97 97 96 94 90 94 98 98 98 98 97 90 94 89 88
44 53 54 45 44 54 40 40 32 26 29 28 25 24 29 34 34 30 26 28 57 67 75 85 90 95 98 98 97 95 96 98 99 99 99 99 98 97 94 92 97 97 97 96 96 94 82 78 92
58 74 87 88 68 60 39 42 31 27 27 24 26 32 43 43 46 44 34 31 48 73 76 86 86 86 89 90 91 90 92 95 95 96 98 98 99 99 96 95 96 96 93 94 97 97 96 94 92
76 73 90 97 80 58 58 62 35 36 34 33 35 46 53 56 53 54 48 38 41 60 68 71 79 79 82 89 90 90 89 89 90 91 96 96 96 95 92 95 95 94 93 95 96 97 97 96 97
80 92 86 93 84 97 82 63 43 38 51 50 47 51 56 60 59 58 58 60 62 63 66 69 69 73 77 78 80 82 83 85 85 89 90 87 89 84 87 89 92 92 92 93 96 98 96 97 97
77 74 94 99 97 96 82 72 60 56 64 57 57 53 56 55 51 56 57 57 57 61 69 70 68 67 68 71 70 70 77 77 80 84 85 86 85 83 85 88 90 90 90 90 94 97 95 96 93
85 96 94 97 99 98 94 81 67 78 74 75 63 59 60 56 53 51 53 55 55 51 51 63 69 68 66 68 72 71 72 76 77 76 77 77 78 80 78 77 77 80 85 90 95 95 93 94 94
71 80 92 97 89 98 99 73 51 74 64 62 65 57 51 58 54 52 49 50 47 51 50 50 58 59 63 64 68 68 68 70 75 76 76 76 76 77 74 75 78 77 79 87 90 89 88 92 93
Wind_Speed
8 7 1 5 4 5 2 5 2 6 6 4 5 4 3 1 4 6 4 3 12 15 13 15 18 17 16 16 17 18 20 20 20 20 20 19 17 16 15 14 13 13 13 13 12 11 12 12 13
5 4 4 3 5 1 4 3 1 3 6 11 3 3 2 1 2 4 5 6 12 14 11 11 17 17 16 17 17 17 17 17 18 19 19 18 16 16 15 14 13 13 13 12 12 11 11 11 12
5 4 3 5 3 5 4 4 2 5 8 4 3 2 1 1 2 6 6 13 14 13 12 11 16 17 18 17 18 18 16 16 17 17 18 17 16 15 14 14 13 12 12 11 11 11 9 9 9
3 4 4 4 7 7 4 2 5 7 7 1 3 1 3 3 1 6 14 18 17 14 14 15 16 17 18 19 19 19 18 18 17 17 16 16 15 14 13 12 11 11 11 10 10 8 8 7 7
4 3 1 1 6 5 4 6 4 4 7 8 5 1 1 2 7 11 12 14 16 13 12 11 16 17 18 17 18 20 19 19 19 18 17 16 14 12 12 11 11 10 10 10 9 8 8 7 6
3 3 2 5 7 4 3 4 4 3 8 10 9 5 1 3 7 7 9 10 10 15 16 14 16 16 18 18 17 18 19 19 19 17 17 16 14 13 12 11 11 10 10 9 8 7 7 7 6
6 4 6 5 4 7 3 1 3 3 6 6 7 3 6 2 5 9 10 9 9 10 12 13 13 13 16 17 17 15 16 17 17 17 16 15 16 14 13 12 11 10 9 9 9 8 7 6 4
5 5 4 5 6 12 4 2 3 3 5 8 1 1 7 6 12 10 9 9 8 7 8 12 12 9 8 9 16 16 15 15 15 15 16 15 14 13 13 11 10 10 9 9 8 8 6 4 3
4 4 5 7 7 10 3 4 1 2 5 5 5 3 7 5 5 9 10 6 8 9 9 12 12 12 9 7 9 13 16 14 14 14 14 12 6 7 9 9 10 9 8 7 7 7 6 5 3
4 4 8 6 5 6 4 4 5 4 10 4 7 11 5 3 8 8 11 11 11 15 15 12 14 13 11 8 9 7 8 6 5 6 8 6 6 6 6 8 9 9 8 8 7 7 6 4 2
3 5 4 3 5 6 3 4 4 3 19 6 8 10 3 6 8 7 7 11 16 9 10 14 15 13 12 9 6 4 4 5 3 4 6 4 4 5 4 3 4 3 6 2 4 3 2 3 2
1 5 5 7 8 7 10 6 9 10 18 6 9 7 7 7 9 11 10 9 12 13 12 11 14 13 11 6 7 7 6 5 5 6 8 5 4 4 4 3 2 3 3 4 3 2 3 3 4
4 5 6 7 7 7 10 9 13 22 8 12 9 10 10 10 11 8 11 9 8 13 14 15 13 13 12 9 8 7 9 7 7 8 10 6 5 5 3 3 3 3 2 3 3 3 3 3 4
3 3 6 5 6 4 6 9 7 2 8 13 11 14 10 12 14 6 7 7 11 11 14 15 15 13 12 11 12 10 9 9 8 8 10 11 6 4 4 2 3 3 3 3 3 3 3 3 3
2 3 7 4 4 5 4 10 10 7 8 11 13 13 8 11 9 10 13 13 13 11 11 16 16 15 15 16 13 11 10 10 10 10 10 9 6 5 5 5 4 5 4 4 3 3 2 2 3
4 4 3 5 4 7 6 14 8 6 7 10 11 8 6 10 9 11 9 9 11 10 16 15 14 16 14 15 12 9 8 8 8 8 7 9 8 5 4 3 4 4 4 3 3 3 2 3 3
6 3 2 8 5 5 5 6 6 7 5 10 10 11 11 8 10 9 10 11 9 12 13 15 16 18 18 14 10 9 8 7 6 5 6 8 7 8 5 5 4 6 4 5 3 4 3 3 3
4 3 3 5 6 4 10 15 10 12 6 10 9 10 12 15 16 13 10 11 9 10 9 13 14 15 14 9 5 4 5 7 8 8 8 12 10 10 7 5 4 4 4 4 4 5 3 4 3
3 3 5 10 14 5 10 14 12 12 9 11 9 9 12 16 19 8 8 7 9 8 8 10 13 12 12 10 10 8 10 6 6 5 7 7 6 11 11 7 5 5 6 7 5 4 3 4 3
5 5 9 7 11 6 8 14 10 7 8 10 8 8 10 8 10 11 8 7 10 13 14 12 13 12 12 10 10 4 6 4 5 5 5 7 9 9 7 9 8 7 7 8 7 6 3 4 3
4 5 5 7 7 4 5 13 6 6 6 7 7 7 7 9 10 9 9 7 6 9 12 14 14 14 12 9 8 4 5 3 2 4 5 8 8 6 7 8 9 8 8 5 9 9 9 5 2
4 5 6 6 4 5 2 20 9 4 10 9 11 8 9 10 8 8 8 7 8 10 6 7 7 9 9 10 9 11 6 7 4 5 5 4 6 6 8 8 4 4 3 6 10 6 5 5 5
8 3 4 5 7 4 2 6 2 2 7 9 9 10 9 7 8 10 11 10 10 5 8 6 7 7 8 11 11 8 5 4 3 3 6 6 4 5 4 5 7 7 2 6 8 9 5 5 6
1 2 3 3 2 9 9 9 20 17 7 6 6 6 9 9 7 10 12 11 8 6 6 6 9 7 8 9 10 11 11 10 8 6 4 3 3 4 7 6 7 7 13 18 14 16 7 6 4
5 6 5 5 2 10 4 6 16 9 5 8 8 7 7 8 9 9 10 13 11 10 11 8 8 8 8 8 8 8 8 7 8 7 6 6 4 3 7 5 4 5 8 8 8 6 5 5 4
1 6 5 7 6 14 6 8 17 2 3 6 7 4 6 5 6 9 12 10 13 14 14 15 12 9 9 8 8 7 8 5 5 6 5 4 3 3 3 4 4 3 4 5 5 4 3 4 4
1 3 2 3 7 7 6 10 14 5 9 13 3 5 4 4 5 7 8 4 5 9 14 17 14 8 9 9 8 8 7 7 6 6 5 4 4 3 5 5 5 4 4 4 4 3 4 3 4
3 4 1 1 5 6 4 4 8 9 9 10 10 8 8 11 7 6 7 7 5 6 3 5 4 11 11 10 8 7 8 7 6 6 6 6 5 4 5 5 5 4 4 4 3 3 3 5 5
1 1 2 1 4 5 5 4 5 5 5 8 8 7 9 9 8 3 4 3 4 5 7 4 3 2 7 8 7 8 7 6 6 6 6 6 4 5 5 4 4 4 4 4 3 3 3 6 5
4 6 6 5 7 4 4 10 7 2 8 7 12 11 11 9 9 8 2 4 6 7 6 2 6 4 2 3 4 9 7 7 7 6 7 6 6 5 5 4 4 3 4 4 4 4 4 6 5
Wind_Direction
318 310 102 43 42 62 261 248 267 335 341 249 291 227 181 186 177 212 340 121 132 141 146 151 152 152 146 138 132 128 129 130 130 130 131 134 137 138 138 137 136 140 139 138 138 137 136 131 130
315 330 39 80 88 357 258 249 149 290 278 295 205 211 136 26 105 120 102 139 142 137 143 147 151 148 146 142 135 131 130 130 130 132 135 136 139 142 142 141 142 145 143 146 146 144 140 136 137
328 30 75 97 123 211 220 194 219 288 299 305 300 76 153 149 169 184 138 141 131 138 146 157 154 148 146 146 140 137 136 134 135 137 140 141 143 144 145 146 145 146 151 155 151 146 138 137 138
12 7 38 106 215 256 248 29 346 348 327 356 303 357 313 304 26 161 145 142 138 146 151 163 157 151 150 151 147 144 145 143 144 147 145 145 146 145 147 146 146 155 159 159 153 144 139 136 136
37 51 87 219 252 245 245 297 355 337 306 308 327 206 318 26 79 124 138 144 141 143 155 158 160 155 152 153 151 149 151 150 151 152 148 148 145 146 149 153 157 161 164 163 159 151 143 141 148
58 95 101 225 254 237 290 301 354 2 338 319 356 330 225 107 124 137 129 136 146 149 161 164 165 162 156 154 155 155 155 156 153 154 152 149 150 155 159 160 168 170 168 163 162 150 150 157 150
134 110 209 214 255 276 222 261 331 84 329 309 313 268 279 209 138 129 126 119 128 148 158 166 172 168 162 159 157 160 161 161 159 157 155 155 159 162 166 170 176 178 172 169 163 164 171 172 157
115 109 185 219 209 263 262 333 0 31 295 308 22 74 303 317 131 116 111 109 118 141 150 171 177 169 165 167 160 161 168 168 165 165 160 161 165 170 174 175 182 181 181 178 174 174 182 189 193
127 91 213 209 189 238 331 347 342 295 232 327 274 295 266 118 112 115 117 115 136 160 171 175 179 183 169 156 173 168 172 175 172 169 169 160 164 175 185 183 188 189 186 187 186 185 195 206 226
136 157 219 209 217 274 286 285 315 333 291 263 310 305 321 125 142 159 167 168 175 176 181 177 188 181 177 171 171 167 177 176 177 174 173 168 172 176 179 188 195 195 194 197 199 204 209 221 232
174 217 202 248 243 250 248 275 237 261 279 202 268 286 323 299 152 184 210 193 187 163 186 178 182 186 182 173 168 176 171 158 169 178 172 168 170 183 185 186 191 174 195 190 214 236 244 242 261
197 234 216 240 233 253 264 227 252 219 253 241 247 237 279 229 236 183 195 194 180 174 186 185 179 177 178 175 178 170 177 170 177 185 198 181 184 194 188 188 186 169 175 187 206 206 237 260 270
193 247 261 258 270 246 265 255 255 258 264 275 255 265 233 238 241 230 202 183 163 178 183 185 184 182 172 172 179 181 182 178 188 190 204 200 194 200 189 179 166 178 182 203 211 206 227 251 265
208 250 280 292 267 240 236 247 190 335 219 259 258 259 233 219 215 219 174 193 189 179 186 180 184 183 180 182 187 188 189 186 189 201 205 202 194 183 162 204 179 206 185 214 216 221 214 242 269
274 293 329 256 255 234 184 284 235 244 251 256 264 257 247 229 193 228 197 190 192 198 179 188 182 182 188 196 189 194 190 185 196 203 198 194 198 200 200 184 197 196 182 219 257 249 228 233 264
8 47 34 291 335 272 159 257 305 277 268 255 266 268 256 263 207 217 227 213 195 175 186 184 186 193 192 198 193 191 179 194 195 202 186 187 183 194 191 196 212 226 174 172 201 240 241 254 215
5 253 334 316 296 290 183 281 290 315 264 276 280 286 294 268 256 242 227 215 205 200 191 184 188 192 196 195 191 188 177 182 181 171 172 171 180 181 195 214 212 210 204 154 199 232 220 234 264
267 299 261 253 275 213 275 276 268 278 244 250 255 267 268 267 255 230 224 223 217 205 198 195 189 190 188 184 168 153 170 183 183 191 197 182 183 180 188 203 216 202 216 187 173 219 187 244 238
229 231 244 261 272 234 258 269 268 265 294 284 258 241 254 255 257 250 222 206 230 221 196 192 184 185 171 179 179 184 190 187 188 192 186 198 203 191 181 200 182 189 211 222 182 179 193 258 210
229 259 273 276 262 175 269 263 238 245 249 249 254 279 256 269 284 271 266 201 192 207 204 197 193 175 184 183 189 169 177 197 191 185 185 194 192 193 195 203 195 176 209 223 178 149 152 243 189
247 201 252 238 304 296 262 273 285 238 246 268 257 239 250 244 265 270 273 252 212 204 203 196 184 180 183 170 135 101 103 88 145 204 203 198 182 189 190 203 214 178 204 190 234 180 165 199 121
268 226 253 277 352 278 106 287 267 222 241 250 256 252 266 273 278 273 271 259 237 230 189 176 160 165 166 154 152 159 158 156 195 208 221 216 192 194 183 194 196 137 231 221 223 216 175 139 169
237 323 299 278 270 282 177 278 263 187 246 248 262 265 283 276 252 263 273 260 223 220 202 193 168 160 159 165 166 155 150 144 137 128 184 196 200 214 224 189 158 183 152 312 298 265 171 190 198
301 350 299 58 135 257 250 194 275 262 231 244 253 254 283 298 285 253 247 257 242 189 187 179 174 181 171 165 164 169 168 158 156 167 194 209 186 219 212 200 181 176 181 215 209 231 243 244 282
68 46 329 323 318 265 185 214 248 275 194 233 253 277 313 303 304 294 262 227 226 193 188 176 180 179 175 164 159 162 161 155 159 159 175 172 182 202 224 216 200 179 194 185 211 210 218 220 199
358 151 178 259 263 290 335 243 254 30 233 264 244 161 239 13 298 297 287 231 215 205 192 181 177 172 169 168 161 161 161 161 167 164 155 167 175 185 185 183 202 203 213 208 199 202 202 206 210
229 184 204 264 246 267 237 286 301 45 28 0 70 314 39 74 10 358 332 288 226 212 198 188 168 164 169 171 161 171 156 152 170 167 158 168 183 202 175 180 192 194 208 221 203 198 208 190 225
162 157 175 261 275 255 232 268 252 354 360 3 3 325 301 298 78 44 5 352 89 93 77 92 161 172 176 173 169 164 173 177 155 149 178 186 194 206 180 166 173 175 195 208 197 209 212 212 227
156 125 93 203 239 291 310 284 332 294 319 317 302 310 293 287 318 79 65 29 49 84 109 90 37 265 193 176 171 172 178 171 160 180 184 190 188 195 209 194 186 188 198 192 186 214 222 233 243
167 188 162 131 278 252 207 267 228 311 312 342 327 343 355 340 308 307 11 79 34 45 51 178 178 260 284 336 276 185 169 165 177 198 205 186 205 196 196 187 195 213 214 188 199 220 219 227 249